Location: Newark
(48.4472°N, 1.4892°E)
Time: 08:30:19
(UTC+00:00)

Transit 4A - Pass Details

Date: 27 November 2019
Orbit: 870 x 975 km, 66.8° (Epoch: 11 December)

Event Time Altitude Azimuth Distance (km) Brightness Sun altitude
Exits shadow 06:34:42 - 289° (WNW) 2,660 9.6 -7.3°
Reaches altitude 10° 06:35:26 10° 283° (WNW) 2,535 9.5 -7.2°
Maximum altitude 06:37:46 13° 259° (W) 2,342 9.5 -6.8°
Drops below altitude 10° 06:40:07 10° 235° (SW) 2,516 9.9 -6.5°
Sets 06:44:08 0° 207° (SSW) 3,444 10.9 -5.9°
